User: anonymous   Login
Location: Newark
(49.8753°N, 23.0797°E)
Time: 06:51:05
(UTC+00:00)
Language:

Envisat - Orbit

View from above orbital plane
View from above orbital plane
View from above satellite
View from above satellite

Ground track
Ground track

The orbit data is extracted from the following two-line orbital elements,

1 27386U 02009A   20156.89905497 +.00000017 +00000-0 +19210-4 0  9997
2 27386 098.1359 164.6092 0001260 089.4730 332.3249 14.37982633956744
Epoch (UTC): 04 June 2020 21:34:38
Eccentricity: 0.0001260
inclination: 98.1359°
perigee height: 764 km
apogee height: 766 km
right ascension of ascending node: 164.6092°
argument of perigee: 89.4730°
revolutions per day: 14.37982633
mean anomaly at epoch: 332.3249°
orbit number at epoch: 95674

The dashed part of the orbit path shows where the satellite is in the earth's shadow,  

DLR